This demonstration page uses our WeatherBlox Daily Observations layout. Learn more.

Left ArrowRight Arrow

39.29038, -76.61219

Hourly Observations for August 24, 2020

Temp ( °F °C ) Dew Point ( °F °C ) Humidity (%) Winds ( mph kmh ) Pressure ( in mb ) Visibility ( mi km ) Precip ( " mm )
12:54 am 00:54 Partly Cloudy 73 22.8 70 21.1 90 90 NW 3 6 30.04 1017 10 16 0.00 0.00
1:54 am 01:54 Partly Cloudy 72 22.2 70 21.1 94 94 Calm 30.04 1017 10 16 0.00 0.00
2:54 am 02:54 Mostly Clear 72 22.2 69 20.6 91 91 W 3 6 30.02 1017 10 16 0.00 0.00
3:54 am 03:54 Partly Cloudy 72 22.2 70 21.1 94 94 Calm 30.02 1017 10 16 0.00 0.00
4:54 am 04:54 Mostly Cloudy 73 22.8 70 21.1 90 90 WSW 5 7 30.02 1017 10 16 0.00 0.00
5:54 am 05:54 Mostly Cloudy 72 22.2 69 20.6 91 91 WNW 5 7 30.03 1017 10 16 0.00 0.00
6:54 am 06:54 Mostly Cloudy 72 22.2 69 20.6 91 91 Calm 30.04 1017 10 16 0.00 0.00
7:54 am 07:54 Partly Cloudy 76 24.4 71 21.7 85 85 W 5 7 30.05 1018 10 16 0.00 0.00
8:54 am 08:54 Partly Cloudy 80 26.7 73 22.8 79 79 W 7 11 30.05 1018 10 16 0.00 0.00
9:54 am 09:54 Partly Cloudy 83 28.3 72 22.2 70 70 W 8 13 30.06 1018 10 16 0.00 0.00
10:54 am 10:54 Partly Cloudy 86 30 71 21.7 61 61 VRB 7 11 30.06 1018 10 16 0.00 0.00
11:54 am 11:54 Partly Cloudy 87 30.6 71 21.7 59 59 W 5 7 30.05 1018 10 16 0.00 0.00
12:54 pm 12:54 Mostly Cloudy 88 31.1 71 21.7 57 57 W 5 7 30.03 1017 10 16 0.00 0.00
1:54 pm 13:54 Mostly Cloudy 91 32.8 70 21.1 50 50 WSW 7 11 30.01 1016 10 16 0.00 0.00
2:44 pm 14:44 Partly Cloudy with Nearby Thunderstorms 89 31.7 70 21.1 53 53 W 7 11 29.99 1016 10 16 0.00 0.00
2:51 pm 14:51 Cloudy 88 31 70 21 55 55 W 6 9 29.99 1016 10 16 0.00 0.00
2:54 pm 14:54 Cloudy 87 30.6 70 21.1 57 57 W 5 7 29.99 1016 10 16 0.00 0.00
3:07 pm 15:07 Mostly Cloudy with Thunderstorms 85 29.4 71 21.7 63 63 W 9 15 29.99 1016 10 16 0.00 0.00
3:29 pm 15:29 Mostly Cloudy with Light Rain 81 27.2 74 23.3 79 79 S 6 9 29.99 1016 8 13 0.03 0.76
3:54 pm 15:54 Partly Cloudy 83 28.3 73 22.8 72 72 S 3 6 29.98 1015 10 16 0.03 0.76
4:54 pm 16:54 Mostly Sunny 87 30.6 72 22.2 61 61 VRB 5 7 29.97 1015 10 16 0.00 0.00
5:54 pm 17:54 Partly Cloudy 89 31.7 72 22.2 57 57 SSW 6 9 29.96 1015 10 16 0.00 0.00
6:54 pm 18:54 Mostly Sunny 87 30.6 70 21.1 57 57 VRB 3 6 29.96 1015 10 16 0.00 0.00
7:54 pm 19:54 Partly Cloudy 83 28.3 71 21.7 67 67 SW 5 7 29.96 1014 10 16 0.00 0.00
8:54 pm 20:54 Partly Cloudy 82 27.8 70 21.1 67 67 SW 5 7 29.97 1015 10 16 0.00 0.00
9:54 pm 21:54 Mostly Clear 81 27.2 71 21.7 72 72 SW 6 9 29.98 1015 10 16 0.00 0.00
10:54 pm 22:54 Mostly Clear 79 26.1 71 21.7 77 77 SW 8 13 29.98 1015 10 16 0.00 0.00
11:54 pm 23:54 Mostly Clear 78 25.6 72 22.2 82 82 SW 6 9 29.98 1015 10 16 0.00 0.00

Powered by AerisWeather